Theta_e
324 325 326 326 328 328 328 328 326 324 323 324 323 322 321 320 320 319 319 319 320 319 320 320 319 318 317 317 316 316 315 315 315 314 314 313 312 312 312 311 310 310 308
327 326 325 327 328 327 327 326 325 323 323 323 322 320 319 319 318 319 319 319 319 319 319 320 319 318 317 316 315 315 315 315 314 313 313 312 311 311 311 310 308 308 307
328 326 327 327 326 325 326 322 321 321 322 322 321 319 318 318 318 318 318 318 319 318 318 318 318 317 317 316 315 314 314 314 313 312 312 311 310 309 308 306 306 305 304
326 325 326 326 325 326 326 321 320 320 320 321 319 319 318 317 317 318 318 318 318 318 318 317 317 317 316 316 315 315 314 313 313 312 311 309 308 306 304 302 302 302 301
326 325 326 325 323 326 325 322 319 320 319 319 319 318 318 317 317 318 318 318 317 318 317 316 316 316 316 316 316 315 315 313 313 312 310 308 306 301 303 301 302 302 301
328 325 326 326 324 325 322 320 318 318 319 319 318 317 317 317 317 318 318 317 317 317 317 316 316 315 315 315 316 316 315 315 314 313 312 310 308 303 302 302 302 302 302
328 327 326 326 325 324 322 320 317 317 317 318 317 316 317 317 317 318 317 317 317 318 317 316 315 315 315 314 314 316 317 316 315 314 313 312 311 308 303 303 303 302 303
326 327 326 326 325 323 319 319 316 316 317 317 318 317 317 316 317 317 317 317 317 316 316 316 316 315 314 314 313 315 317 317 317 316 315 314 313 311 307 305 304 304 304
323 327 327 325 324 324 319 318 316 317 317 318 318 318 317 318 315 316 316 316 316 316 316 315 315 315 313 313 313 312 312 315 317 318 317 315 314 313 312 310 309 306 306
321 323 324 325 324 324 321 319 316 316 317 318 318 318 319 318 316 314 315 316 316 316 316 315 315 314 314 313 313 313 312 311 311 314 316 317 316 315 314 313 313 311 309
320 325 324 325 323 323 318 317 315 315 316 318 318 317 316 318 317 314 314 314 316 316 315 315 315 315 315 314 315 315 316 315 314 314 313 313 315 317 317 316 315 315 314
320 323 323 323 322 323 319 316 314 314 316 317 318 318 317 317 316 315 313 315 316 317 317 316 316 316 317 317 317 317 317 317 317 316 316 315 315 314 314 315 316 316 316
319 321 322 323 321 320 319 316 316 315 317 318 319 319 319 314 313 314 316 315 315 317 317 317 318 318 318 318 318 318 318 318 317 317 317 317 316 316 316 316 315 315 316
320 320 321 322 321 319 317 316 315 312 316 317 318 317 315 314 312 316 316 315 314 314 315 316 317 317 318 318 317 317 317 316 316 315 315 314 315 315 315 315 316 316 316
319 319 320 319 318 317 316 315 314 314 314 318 315 315 315 313 314 316 316 316 315 316 315 316 316 316 316 317 317 317 317 317 317 318 317 317 317 317 318 317 317 315 314
318 319 319 318 316 315 316 316 316 316 317 314 315 316 315 315 316 317 315 317 317 316 316 316 318 318 318 318 317 317 318 317 317 317 317 317 317 317 317 317 317 317 316
318 319 319 318 317 316 316 317 317 316 315 315 315 316 316 315 316 316 316 317 317 317 317 317 317 318 317 317 317 316 317 316 316 317 317 317 317 317 318 318 318 317 317
317 318 319 319 318 318 317 317 317 318 317 316 316 316 316 315 315 315 315 316 317 317 317 317 317 317 317 317 317 317 317 316 317 317 317 317 317 317 318 318 318 317 316
316 316 316 317 318 319 317 317 318 318 318 317 317 316 316 315 314 315 315 316 316 317 317 317 317 317 316 316 317 317 316 316 316 316 316 316 317 317 317 318 317 317 316
316 315 315 315 315 316 317 317 315 315 315 315 316 316 315 315 314 314 315 315 315 316 316 316 316 317 316 316 316 316 315 316 316 316 315 315 315 316 316 317 317 316 315
317 317 316 314 314 315 315 315 315 315 314 314 314 314 314 314 314 315 315 315 315 315 315 316 316 316 316 316 315 315 314 314 314 314 314 314 315 315 315 316 315 314 314
317 316 315 315 315 313 313 313 314 314 315 315 315 315 315 316 315 315 315 315 315 314 315 315 315 315 315 315 315 315 314 313 313 314 314 312 313 313 313 313 311 310 310
319 318 317 316 315 315 315 314 313 313 313 313 313 313 313 313 314 314 314 315 315 315 315 314 314 315 315 315 315 314 314 314 314 314 314 308 307 304 302 302 300 299 298
319 319 319 319 318 318 318 318 316 313 312 312 312 312 312 312 312 313 313 312 312 313 314 315 313 314 314 314 313 313 314 314 308 304 300 295 292 292 292 293 291 291 290
316 320 320 319 318 317 316 316 316 314 312 312 312 312 312 312 313 313 312 311 311 311 310 309 307 303 307 309 310 309 306 305 295 291 291 292 288 288 287 287 287 287 286
304 310 311 308 304 307 301 301 307 311 311 311 312 312 311 311 312 312 311 310 310 310 305 293 291 289 289 291 291 295 296 301 290 285 285 286 285 286 285 282 283 283 283
Wind_Speed
27 30 35 27 27 33 34 36 37 34 33 33 32 28 26 24 25 25 24 22 20 20 20 20 20 19 19 18 18 18 17 17 17 18 18 18 18 17 16 15 15 14 13
26 27 30 28 30 30 39 39 38 35 35 35 33 29 26 27 26 28 25 23 21 20 19 19 19 18 18 18 16 17 17 16 16 16 17 17 17 16 15 14 13 13 12
19 22 22 31 34 35 34 37 36 35 35 35 32 29 27 26 27 27 26 24 21 20 19 19 18 18 18 18 17 16 16 16 15 15 15 15 15 14 14 13 12 12 11
21 23 20 24 30 32 38 38 36 34 35 34 31 29 27 26 27 27 27 25 23 21 19 18 19 19 18 18 17 16 16 15 15 15 15 14 14 13 13 13 12 11 10
25 25 26 29 32 31 34 36 35 36 34 30 31 28 27 27 27 27 26 25 25 24 22 20 19 19 19 18 16 15 16 16 16 15 15 14 13 13 13 12 13 12 11
30 27 26 30 32 30 30 31 37 35 36 33 26 25 25 25 26 26 26 24 23 24 23 23 22 21 20 19 18 16 15 16 16 15 15 15 15 14 14 14 14 13 13
32 33 31 31 32 30 33 36 34 35 28 30 26 16 14 17 21 23 24 24 24 24 24 23 23 22 21 19 19 18 17 17 16 16 16 17 17 17 16 17 16 16 16
27 34 31 35 36 31 31 37 30 26 21 30 15 16 4 3 12 19 22 25 26 26 26 24 25 24 21 21 22 21 20 19 19 19 19 20 20 20 20 20 21 20 20
21 34 34 38 39 37 35 37 34 36 24 29 26 10 3 3 6 12 23 25 26 26 27 26 27 26 24 23 24 23 23 23 23 22 23 24 24 24 24 24 24 23 24
18 24 25 36 38 37 37 38 38 31 25 28 27 14 11 15 4 2 12 24 26 27 29 27 28 28 28 28 26 26 26 26 26 26 28 29 29 29 27 27 26 27 28
21 23 25 29 34 38 35 36 39 35 32 30 26 19 15 16 12 4 3 6 23 29 31 31 31 32 31 30 30 30 28 29 29 30 31 31 33 34 35 36 35 35 34
19 21 29 31 34 38 40 38 36 38 37 32 30 30 21 10 8 5 2 4 15 21 35 34 36 36 33 32 32 32 31 32 32 33 35 36 36 37 38 40 40 40 40
17 24 24 27 32 34 37 42 37 38 34 36 38 34 28 21 18 18 16 6 8 21 13 30 37 35 35 34 33 34 34 33 33 33 37 37 37 39 41 42 43 45 44
15 17 22 27 31 36 35 36 36 37 36 34 38 28 22 22 20 31 24 8 1 5 14 16 16 30 35 33 33 33 34 32 33 33 36 36 35 36 38 41 43 46 47
18 18 21 25 28 33 32 33 34 38 39 37 36 33 33 36 37 38 26 25 15 4 4 13 16 24 26 26 25 27 25 28 24 26 28 32 34 35 35 36 37 41 44
20 24 24 25 27 29 29 32 28 32 37 37 36 34 35 34 41 43 37 30 26 19 7 19 23 24 22 24 24 26 29 29 29 34 34 36 38 37 40 40 39 39 40
22 22 26 27 27 29 31 26 26 28 26 29 32 36 32 34 36 35 33 31 30 30 15 21 25 24 27 29 32 40 39 36 40 39 37 42 43 45 45 43 40 40 41
21 21 25 28 29 30 31 34 36 35 33 32 32 31 35 35 36 36 35 36 35 35 27 23 25 29 32 37 39 41 44 44 42 44 44 45 47 47 47 45 40 39 39
22 24 25 28 31 32 32 34 35 34 36 39 39 39 37 38 37 35 34 32 33 32 29 27 27 27 32 35 39 41 43 43 44 42 43 46 46 44 44 42 40 39 39
22 23 25 27 29 33 35 37 35 36 36 38 39 38 38 39 38 35 34 37 34 31 29 26 27 31 28 29 33 31 31 39 43 44 47 45 43 42 41 43 42 42 41
24 24 25 29 31 33 36 35 35 35 37 38 39 42 43 46 47 46 37 34 31 30 29 28 28 29 29 28 27 35 31 37 36 38 41 42 43 43 43 42 40 38 39
25 25 27 29 32 34 35 36 36 34 35 37 36 40 44 46 48 49 51 52 43 36 35 31 31 31 35 36 35 32 31 26 17 32 36 38 39 41 42 41 39 36 34
28 29 30 31 32 34 35 37 37 39 35 37 39 39 39 43 46 48 51 53 54 55 54 46 39 38 36 37 35 32 31 33 33 32 34 27 31 30 28 27 22 20 21
29 30 31 31 33 36 37 37 37 40 41 40 40 42 41 42 42 45 48 43 48 54 58 61 55 48 43 38 36 35 33 31 25 18 17 4 6 2 5 4 3 7 8
8 18 21 23 27 21 23 32 36 38 37 41 43 41 40 40 44 45 45 42 41 39 40 40 32 29 41 48 51 46 34 24 6 4 5 6 4 11 11 11 9 7 8
10 8 4 2 6 6 8 8 13 30 28 29 31 32 29 36 39 40 42 39 35 31 28 12 8 6 5 2 2 11 19 21 8 4 5 4 5 4 6 14 13 12 10
Wind_Direction
222 217 211 205 194 184 188 184 175 174 178 179 177 178 179 176 175 166 165 163 163 165 160 158 158 161 157 160 157 152 150 149 147 146 145 144 142 142 142 139 135 130 124
238 220 212 200 190 179 184 184 180 177 179 180 177 180 178 175 174 171 167 169 172 169 165 164 163 166 162 163 161 159 157 156 156 154 153 155 153 151 151 146 146 140 134
219 205 165 160 166 178 180 181 178 177 178 179 178 181 176 176 177 175 172 175 174 173 174 174 171 171 167 167 169 167 166 164 166 165 164 163 160 162 159 157 158 153 152
186 180 172 179 171 182 187 183 177 176 175 177 179 181 180 182 181 181 179 179 176 178 180 182 179 178 175 174 177 177 176 173 176 177 177 174 174 174 174 172 176 172 173
191 182 183 185 183 189 189 183 173 174 172 177 182 182 186 187 187 185 186 184 184 186 183 187 190 189 185 184 184 187 187 185 188 189 189 187 188 187 190 190 191 194 192
205 200 193 193 193 194 189 180 176 177 176 176 173 179 188 191 191 192 192 188 196 192 194 194 195 198 198 194 191 195 200 200 198 200 202 201 203 202 206 208 206 209 209
210 208 206 203 200 196 190 190 179 176 170 171 147 149 169 190 195 199 200 197 201 202 202 203 206 205 205 206 203 200 208 212 212 213 214 215 215 216 221 220 221 220 224
213 210 195 199 205 192 181 189 177 164 168 168 165 142 136 155 211 211 209 208 210 210 212 212 217 216 211 215 217 213 211 218 221 223 225 226 228 228 229 231 232 232 234
220 207 204 198 200 201 185 186 185 181 169 180 172 156 146 170 144 216 221 217 218 219 223 220 224 226 226 226 228 228 227 221 221 228 234 239 242 243 245 242 239 242 241
219 218 188 195 197 203 195 193 189 185 184 178 179 181 180 153 161 162 215 225 225 227 231 230 232 233 232 233 235 238 239 238 235 232 234 239 246 251 254 254 254 253 249
212 207 216 205 195 201 195 186 185 185 193 183 180 174 151 156 150 130 175 188 228 232 236 235 236 238 237 239 242 244 246 247 247 246 246 245 243 245 250 253 257 257 257
207 204 203 206 199 208 201 189 188 189 196 190 185 185 166 162 167 143 111 169 211 229 233 237 238 239 242 246 250 253 254 255 257 255 254 253 253 252 253 253 252 253 255
192 206 211 212 199 199 201 196 190 187 194 191 191 193 195 202 205 222 212 174 194 220 245 244 245 245 247 250 254 257 259 260 262 262 262 261 260 260 259 259 258 256 256
204 204 205 206 204 200 197 189 189 186 202 203 203 189 213 222 231 224 209 172 144 210 227 240 254 244 248 251 256 262 264 270 271 269 268 269 268 267 266 264 263 262 261
193 199 197 195 193 190 182 183 189 196 205 208 212 214 233 232 230 227 229 229 211 190 225 249 242 250 247 251 254 259 272 268 268 277 281 281 280 279 277 274 269 264 263
204 193 186 187 188 189 185 190 187 194 208 214 220 221 223 223 226 227 230 231 236 230 231 239 248 251 267 257 264 267 262 265 270 269 275 278 274 278 279 278 278 273 268
204 207 199 193 194 194 195 199 201 205 209 212 214 217 222 229 233 229 232 238 239 237 229 243 246 241 234 252 261 256 262 262 267 263 265 268 271 273 273 275 274 273 273
213 213 211 210 209 210 210 211 214 220 224 226 224 229 226 233 239 240 237 237 236 237 231 244 246 246 253 264 264 264 263 266 267 266 269 273 273 273 273 273 269 271 273
225 224 224 222 222 221 220 222 223 229 230 228 232 234 236 239 240 240 244 242 243 244 243 245 250 248 260 265 263 263 265 266 269 271 274 276 275 274 273 270 268 271 270
230 229 231 233 232 231 229 230 233 236 235 236 238 233 234 241 243 247 246 248 244 240 239 236 245 257 256 255 253 255 260 262 262 268 276 275 275 275 273 268 266 267 264
234 237 235 235 237 237 237 235 239 239 236 236 241 245 247 251 255 254 246 246 241 237 242 244 248 251 252 246 241 251 250 259 258 263 266 267 274 274 273 270 267 264 261
237 239 238 239 240 240 241 242 238 232 234 236 240 246 251 253 255 255 256 256 246 240 242 243 247 246 246 246 247 246 247 248 260 265 261 257 267 269 267 266 266 260 254
238 239 243 245 246 248 246 243 239 236 234 236 240 241 242 247 252 253 254 254 254 252 250 249 247 247 250 247 249 252 249 253 259 265 257 250 248 253 259 260 270 270 245
230 234 237 245 248 253 257 257 252 241 238 239 241 243 242 246 246 249 251 248 252 255 253 248 248 254 257 256 251 250 255 262 253 246 231 239 221 139 196 164 178 187 194
291 245 233 236 236 239 245 245 250 245 239 241 245 246 245 245 246 246 243 242 245 247 250 248 250 246 249 254 257 257 252 246 230 187 199 169 128 108 100 92 104 114 121
6 336 46 80 41 194 350 349 274 245 242 245 252 257 262 258 254 251 252 248 251 248 230 196 164 88 63 28 53 249 253 233 166 102 33 101 91 126 108 88 82 88 81